Powrót do katalogu

THORAD AGENA D DEB

AktywnyLEO
NORAD 22532·DEBRIS·🇺🇸 United States

Wystrzelony Apr 8, 1970 z Vandenberg Space Force Base

Loading…

Następne Przeloty (najbliższe 24 godziny)

TLE

ŚwieżeSource: Space-Track

Epoka: Sep 14, 2026, 00:43 UTC

1 22532U 70025QN  26257.03047189  .00000817  00000-0  97570-3 0  9999
2 22532 100.0920  90.3010 0005323  12.7161 138.9774 13.70619742664827

Śledź THORAD AGENA D DEB w czasie rzeczywistym z AllMySat

Download on the App Store